(287465) = 2003 AX24

Discovered at Socorro on 2003-01-04 by LINEAR.

Orbit

Orbit type: Main Belt

Note: WebGL enabled browser required.

epoch2024-03-31.0
epoch JD2460400.5
perihelion date2023-08-23.06697
perihelion JD2460179.56697
argument of perihelion (°)116.14394
ascending node (°)271.64198
inclination (°)6.04392
eccentricity0.1237972
perihelion distance (AU)2.0315884
Tisserand w.r.t. Jupiter3.6
ΔV w.r.t. Earth (km/sec)9.0
semimajor axis (AU)2.3186282
mean anomaly (°)61.67623
mean daily motion (°/day)0.27916260
aphelion distance (AU)2.606
period (years)3.53
P-vector [x]0.87970779
P-vector [y]0.38997339
P-vector [z]0.27209365
Q-vector [x]-0.46372097
Q-vector [y]0.83021122
Q-vector [z]0.30937388
absolute magnitude16.86
phase slope0.15
uncertainty0
referenceMPEC 2024-E152
observations used478
oppositions14
arc length (days)9298
first opposition used1998
last opposition used2024
residual rms (arc-secs)0.67
perturbers coarse indicatorM-v
perturbers precise indicator003Ek
first observation date used1998-09-25.0
last observation date used2024-03-10.0
computer nameMPCLINUX
JD of orbit computation2456760.856150
perihelion JD uncertainty (days)8.0476E-05
argument of perihelion uncertainty (°)5.5323E-05
ascending node uncertainty (°)5.1078E-05
inclination uncertainty (°)2.8903E-06
eccentricity uncertainty 4.7758E-08
perihelion distance uncertainty (AU)1.0903E-07
Minimum Orbit Intersection Distances (in AU)
for orbit epoch: 2460400.5, reference: E2024-EF2
Mercury1.70108
Venus1.31778
Earth1.04539
Mars0.57136
Jupiter2.81877
Saturn6.80507
Uranus15.9183
Neptune27.8006

Observations

482 total observations over interval: 1998 09 25.38119 – 2024 03 10.54931
These data are available for download (format description).

Date (UT) J2000 RA J2000 Dec Magn Location Ref
1998 09 25.38119 00 00 24.68 +12 51 43.5 18.6 R 699 – Lowell Observatory-LONEOS MPS 182448
1998 09 25.40601 00 00 23.15 +12 51 34.6   699 – Lowell Observatory-LONEOS MPS 182448
1998 09 25.43089 00 00 21.82 +12 51 24.5   699 – Lowell Observatory-LONEOS MPS 182449
2000 05 05.223330 10 30 38.148 +00 57 40.18 21.43 V 645 – Apache Point-Sloan Digital Sky Survey MPS 180952
2000 05 05.226802 10 30 38.204 +00 57 40.48 22.51   645 – Apache Point-Sloan Digital Sky Survey MPS 180952
2002 12 11.30976 06 40 17.24 +23 26 34.3 19.6   704 – Lincoln Laboratory ETS, New Mexico MPS 180952
2002 12 11.32538 06 40 16.25 +23 26 30.8 19.6   704 – Lincoln Laboratory ETS, New Mexico MPS 180952
2002 12 11.34090 06 40 15.21 +23 26 28.7 19.4   704 – Lincoln Laboratory ETS, New Mexico MPS 180952
2002 12 11.35662 06 40 14.25 +23 26 26.4 19.5   704 – Lincoln Laboratory ETS, New Mexico MPS 180952
2003 01 04.25177 06 13 06.77 +22 18 26.5 19.7   704 – Lincoln Laboratory ETS, New Mexico MPS 70232
2003 01 04.26632 06 13 05.79 +22 18 23.6 19.8   704 – Lincoln Laboratory ETS, New Mexico MPS 70232
2003 01 04.28085 06 13 04.75 +22 18 21.0 20.0   704 – Lincoln Laboratory ETS, New Mexico MPS 70232
2003 01 04.29555 06 13 03.74 +22 18 18.4 19.8   704 – Lincoln Laboratory ETS, New Mexico MPS 70232
2003 01 08.26097 06 08 53.07 +22 06 23.4 20.0   704 – Lincoln Laboratory ETS, New Mexico MPS 70232
2003 01 08.27668 06 08 52.14 +22 06 20.6 20.5   704 – Lincoln Laboratory ETS, New Mexico MPS 70232
2003 01 08.29167 06 08 51.13 +22 06 18.4 19.8   704 – Lincoln Laboratory ETS, New Mexico MPS 70232
2003 01 08.30653 06 08 50.20 +22 06 15.5 19.4   704 – Lincoln Laboratory ETS, New Mexico MPS 70232
2004 05 28.17763 13 38 47.78 -17 36 56.3 21.1 V 291 – LPL/Spacewatch II MPS 180952
2004 05 28.19428 13 38 47.31 -17 36 50.1 21.9 V 291 – LPL/Spacewatch II MPS 180952
2004 05 28.21013 13 38 46.89 -17 36 45.2 21.3 V 291 – LPL/Spacewatch II MPS 180952
2005 08 29.36992 23 25 43.58 +08 10 41.4 19.1 R 644 – Palomar Mountain/NEAT MPS 180952
2005 08 29.38282 23 25 42.92 +08 10 40.3 19.0 R 644 – Palomar Mountain/NEAT MPS 180952
2005 08 29.40932 23 25 41.44 +08 10 38.8 18.4 R 644 – Palomar Mountain/NEAT MPS 180952
2005 08 31.23453 23 24 13.12 +08 07 25.4 18.6 R 699 – Lowell Observatory-LONEOS MPS 180952
2005 08 31.26006 23 24 11.77 +08 07 22.0   699 – Lowell Observatory-LONEOS MPS 180952
2005 08 31.28557 23 24 10.45 +08 07 17.4   699 – Lowell Observatory-LONEOS MPS 180952
2005 08 31.31107 23 24 09.10 +08 07 14.6   699 – Lowell Observatory-LONEOS MPS 180952
2005 09 11.28359 23 14 22.40 +07 31 05.3 18.9   704 – Lincoln Laboratory ETS, New Mexico MPS 180952
2005 09 11.30651 23 14 21.07 +07 30 58.4 19.4   704 – Lincoln Laboratory ETS, New Mexico MPS 180952
2005 09 11.31812 23 14 20.34 +07 30 55.7 19.5   704 – Lincoln Laboratory ETS, New Mexico MPS 180952
2005 09 26.197217 23 01 17.499 +06 08 30.26 19.32 V 645 – Apache Point-Sloan Digital Sky Survey MPS 431007
2005 09 26.200689 23 01 17.324 +06 08 28.95 20.28   645 – Apache Point-Sloan Digital Sky Survey MPS 431007
2005 09 28.236477 22 59 44.697 +05 55 38.77 19.34 V 645 – Apache Point-Sloan Digital Sky Survey MPS 431007
2005 09 28.239949 22 59 44.536 +05 55 37.46 20.28   645 – Apache Point-Sloan Digital Sky Survey MPS 431007
2005 10 01.18865 22 57 40.68 +05 36 52.1 19.3 V 703 – Catalina Sky Survey MPS 180952
2005 10 01.19353 22 57 40.42 +05 36 50.4 18.9 V 703 – Catalina Sky Survey MPS 180952
2005 10 01.19483 22 57 40.43 +05 36 49.8 18.9 R 699 – Lowell Observatory-LONEOS MPS 180952
2005 10 01.19844 22 57 40.21 +05 36 48.6 19.2 V 703 – Catalina Sky Survey MPS 180952
2005 10 01.20331 22 57 40.03 +05 36 45.9 19.2 V 703 – Catalina Sky Survey MPS 180952
2005 10 01.21681 22 57 39.47 +05 36 41.0   699 – Lowell Observatory-LONEOS MPS 180952
2005 10 01.23886 22 57 38.56 +05 36 32.6   699 – Lowell Observatory-LONEOS MPS 180952
2005 10 01.26091 22 57 37.65 +05 36 23.2   699 – Lowell Observatory-LONEOS MPS 180952
2009 11 17.37444 06 03 40.85 +26 28 11.8 19.9 V 691 – Steward Observatory, Kitt Peak-Spacewatch MPS 303235
2009 11 17.39215 06 03 40.17 +26 28 09.1 19.8 V 691 – Steward Observatory, Kitt Peak-Spacewatch MPS 303235
2009 11 17.40987 06 03 39.53 +26 28 06.6 19.8 V 691 – Steward Observatory, Kitt Peak-Spacewatch MPS 303235
2009 12 16.27157 05 35 36.61 +24 46 19.5 19.3   704 – Lincoln Laboratory ETS, New Mexico MPS 307247
2009 12 16.28438 05 35 35.72 +24 46 15.5 19.6   704 – Lincoln Laboratory ETS, New Mexico MPS 307247
2009 12 16.31012 05 35 33.77 +24 46 08.3 19.4   704 – Lincoln Laboratory ETS, New Mexico MPS 307247
2009 12 20.38150 05 30 51.69 +24 27 30.8 18.4 V G96 – Mt. Lemmon Survey MPS 308598
2009 12 20.38786 05 30 51.26 +24 27 28.8 18.3 V G96 – Mt. Lemmon Survey MPS 308598
2009 12 20.39418 05 30 50.79 +24 27 27.1 18.3 V G96 – Mt. Lemmon Survey MPS 308598
2009 12 20.40046 05 30 50.36 +24 27 25.3 18.3 V G96 – Mt. Lemmon Survey MPS 308598
2012 08 08.58184 22 48 28.974 +02 31 16.97 19.3 i F51 – Pan-STARRS 1, Haleakala MPS 429311
2012 08 08.59370 22 48 28.493 +02 31 17.68 19.2 i F51 – Pan-STARRS 1, Haleakala MPS 429311
2012 08 12.31270 22 45 58.06 +02 33 10.1 19.6 V 703 – Catalina Sky Survey MPS 429991
2012 08 12.31789 22 45 57.81 +02 33 11.3 19.2 V 703 – Catalina Sky Survey MPS 429991
2012 08 12.32309 22 45 57.60 +02 33 11.7 19.8 V 703 – Catalina Sky Survey MPS 429991
2012 08 12.32824 22 45 57.27 +02 33 10.3 19.7 V 703 – Catalina Sky Survey MPS 429991
2012 08 28.23513 22 32 17.99 +02 07 15.3 18.5 G G45 – Space Surveillance Telescope, Atom Site MPS 1608979
2012 08 28.27212 22 32 15.77 +02 07 07.6 18.0 G G45 – Space Surveillance Telescope, Atom Site MPS 1608979
2012 08 28.33479 22 32 12.03 +02 06 56.0 18.3 G G45 – Space Surveillance Telescope, Atom Site MPS 1608979
2012 08 28.37517 22 32 09.65 +02 06 48.0 19.2 G G45 – Space Surveillance Telescope, Atom Site MPS 1608979
2013 11 06.63062 09 57 40.544 +09 04 20.55 21.4 w F51 – Pan-STARRS 1, Haleakala MPS 487019
2013 11 06.63545 09 57 40.895 +09 04 17.86 21.3 w F51 – Pan-STARRS 1, Haleakala MPS 487019
2014 01 24.54104 10 26 33.121 +01 36 04.61 20.3 r F51 – Pan-STARRS 1, Haleakala MPS 500078
2014 01 24.55222 10 26 32.625 +01 36 04.90 20.1 r F51 – Pan-STARRS 1, Haleakala MPS 500078
2014 02 10.43783 10 11 57.783 +02 07 03.83 19.7 i F51 – Pan-STARRS 1, Haleakala MPS 501549
2014 02 10.45019 10 11 57.021 +02 07 06.37 19.7 i F51 – Pan-STARRS 1, Haleakala MPS 501549
2014 02 10.46259 10 11 56.251 +02 07 08.61 19.8 i F51 – Pan-STARRS 1, Haleakala MPS 501549
2014 02 10.47503 10 11 55.477 +02 07 11.27 19.8 i F51 – Pan-STARRS 1, Haleakala MPS 501549
2014 02 20.38010 10 01 49.57 +02 45 42.4 19.6 V G96 – Mt. Lemmon Survey MPS 502240
2014 02 20.38464 10 01 49.27 +02 45 43.8 19.7 V G96 – Mt. Lemmon Survey MPS 502240
2014 02 20.38917 10 01 49.00 +02 45 45.0 19.8 V G96 – Mt. Lemmon Survey MPS 502240
2014 02 20.39371 10 01 48.73 +02 45 46.1 19.4 V G96 – Mt. Lemmon Survey MPS 502240
2014 02 20.40312 10 01 48.362 +02 45 49.90 19.6 i F51 – Pan-STARRS 1, Haleakala MPS 502240
2014 02 20.41505 10 01 47.617 +02 45 52.82 19.6 i F51 – Pan-STARRS 1, Haleakala MPS 502240
2014 02 20.42700 10 01 46.850 +02 45 55.98 19.5 i F51 – Pan-STARRS 1, Haleakala MPS 502240
2014 02 21.32862 10 00 51.767 +02 49 57.78 20.3 g F51 – Pan-STARRS 1, Haleakala MPS 503797
2014 02 21.33020 10 00 51.668 +02 49 58.12 20.3 g F51 – Pan-STARRS 1, Haleakala MPS 503797
2014 02 21.33177 10 00 51.572 +02 49 58.50 20.3 g F51 – Pan-STARRS 1, Haleakala MPS 503797
2014 02 21.33490 10 00 51.362 +02 49 59.20 20.5 g F51 – Pan-STARRS 1, Haleakala MPS 503797
2014 02 21.33646 10 00 51.275 +02 49 59.72 20.2 g F51 – Pan-STARRS 1, Haleakala MPS 503797
2014 02 21.33802 10 00 51.167 +02 50 00.13 20.4 g F51 – Pan-STARRS 1, Haleakala MPS 503797
2014 02 21.33958 10 00 51.074 +02 50 00.56 20.3 g F51 – Pan-STARRS 1, Haleakala MPS 503797
2014 02 21.34169 10 00 50.931 +02 50 01.20 19.8 r F51 – Pan-STARRS 1, Haleakala MPS 503797
2014 02 21.39421 10 00 47.605 +02 50 15.24 20.2 g F51 – Pan-STARRS 1, Haleakala MPS 503797
2014 02 21.39576 10 00 47.508 +02 50 15.77 20.4 g F51 – Pan-STARRS 1, Haleakala MPS 503797
2014 02 21.39731 10 00 47.412 +02 50 16.18 20.5 g F51 – Pan-STARRS 1, Haleakala MPS 503797
